Wetbulb
61.05 60.64 60.51 60.85 61.41 62.10 62.44 62.52 62.15 61.67 61.46 59.43 58.29 58.09 57.32 60.44 61.63 57.28 53.73 56.28 58.03 62.32 59.81 54.71 54.54 54.31 55.24 53.51 53.88 54.48 48.68 45.80 46.64 46.62 48.22 51.71 50.49 52.38 53.15 52.68 55.04 56.42 56.49 61.19 65.46
60.42 60.30 60.35 60.65 61.03 61.55 62.13 62.41 62.33 62.49 62.29 61.62 59.91 59.49 59.39 61.00 56.83 53.53 59.84 61.48 62.74 62.51 53.72 51.76 51.94 53.58 51.18 52.84 52.31 50.39 48.65 48.35 50.84 50.20 49.43 51.28 51.33 51.22 50.59 51.15 51.52 54.02 59.08 64.17 64.99
60.00 60.06 60.03 60.53 60.49 60.78 61.59 62.02 61.99 62.24 62.44 61.87 61.82 61.03 60.45 59.49 50.63 50.67 61.25 62.54 63.22 61.47 55.84 54.40 53.49 52.70 50.38 51.48 51.01 51.06 48.49 50.30 49.36 49.97 51.78 51.09 50.63 52.25 50.39 49.06 51.54 51.70 55.57 62.25 63.57
59.71 59.74 59.79 59.74 60.17 60.27 60.99 61.24 61.24 61.75 62.02 61.99 61.62 61.17 60.27 56.05 40.03 53.18 62.06 63.71 63.19 59.09 54.72 52.21 51.24 48.93 49.06 47.99 50.79 47.61 48.74 49.64 49.11 49.29 50.35 49.99 51.32 49.98 50.96 51.03 52.80 53.92 56.18 61.18 62.17
59.19 59.13 58.87 59.30 59.80 60.04 60.55 60.93 60.92 60.83 60.85 60.89 61.09 60.36 56.37 48.70 48.57 55.68 61.53 63.02 59.36 56.22 51.80 50.53 49.55 49.24 46.36 48.77 49.36 48.63 48.33 49.05 49.32 48.77 50.32 50.40 49.51 49.51 50.07 52.09 51.89 52.04 55.20 58.79 61.10
58.71 58.16 58.16 58.66 59.41 60.19 60.38 60.53 60.22 60.19 60.38 60.47 60.38 59.77 53.61 43.44 55.23 55.55 57.50 57.35 56.08 53.61 51.39 51.76 49.97 51.33 48.59 48.41 48.09 49.07 49.04 48.41 48.82 48.44 48.06 48.35 48.02 48.30 49.22 50.35 50.48 50.82 53.51 56.81 59.78
58.24 57.60 57.64 58.21 58.95 59.78 60.06 60.12 59.64 59.68 59.77 59.62 59.84 56.95 50.30 47.49 55.40 55.40 55.26 54.32 54.95 53.69 51.37 52.65 52.42 50.29 50.05 47.35 48.35 49.17 44.85 46.64 47.28 47.53 46.81 47.91 45.09 46.04 48.51 48.54 48.81 49.67 52.44 55.08 58.24
57.78 57.19 57.50 57.81 58.54 59.20 59.52 59.48 59.46 59.26 59.38 59.83 60.17 55.21 46.27 54.82 56.22 52.87 53.65 53.05 54.23 54.43 53.60 52.94 52.62 50.81 49.51 48.92 47.05 45.45 46.40 42.48 45.64 46.80 46.84 46.07 43.95 47.10 47.95 47.38 47.85 49.59 50.93 52.80 55.89
57.16 56.85 57.33 57.52 57.74 58.45 58.92 58.78 58.47 58.52 58.57 59.58 55.03 51.83 44.59 54.90 50.16 52.86 53.38 51.02 51.76 52.26 52.94 51.98 52.26 49.07 47.77 45.21 43.04 43.87 40.75 41.85 41.20 46.19 45.99 45.06 44.38 45.34 48.16 47.66 47.58 48.63 49.69 50.34 51.47
56.80 56.79 57.14 57.25 57.48 57.90 58.03 57.70 58.24 57.93 57.32 56.24 52.53 46.69 47.96 47.27 51.44 52.00 53.51 52.91 49.91 50.40 49.16 49.19 48.59 45.33 45.89 43.74 38.52 40.00 40.58 41.32 41.72 43.45 44.36 44.02 43.99 46.03 47.52 47.49 48.54 49.40 50.16 50.31 50.22
56.68 56.93 57.00 56.99 57.30 57.78 56.98 55.47 49.71 47.93 50.26 44.93 45.24 45.12 46.50 50.91 52.73 50.40 51.92 50.32 50.57 48.42 43.64 47.09 43.42 40.79 42.72 44.58 44.83 44.04 41.60 40.20 42.76 43.55 43.62 43.35 43.92 45.37 47.09 47.51 48.08 49.07 48.89 49.28 49.04
56.68 56.82 56.83 56.83 57.16 57.43 55.95 49.04 48.63 49.92 42.84 48.69 47.32 47.42 49.81 50.69 45.52 48.35 51.71 46.92 46.08 42.23 45.67 42.95 40.19 44.93 46.11 43.52 42.33 42.66 40.90 40.59 41.25 42.66 42.91 43.33 42.74 45.50 45.85 46.27 46.33 46.74 47.55 47.56 48.38
56.39 56.36 56.35 56.44 56.80 55.62 53.78 50.93 54.51 52.55 42.52 44.32 46.11 46.55 47.63 49.20 45.71 45.78 49.02 47.96 44.37 42.44 42.54 40.73 42.62 44.63 42.81 41.52 41.02 41.33 40.18 40.29 40.23 40.67 41.93 41.24 41.04 43.11 43.03 45.08 46.20 46.90 47.22 47.89 48.48
56.17 55.95 55.86 56.19 52.83 53.33 51.18 54.27 56.12 54.03 37.24 39.09 42.80 45.22 47.61 48.06 44.04 48.96 49.51 47.19 44.81 41.63 42.69 42.26 41.34 41.59 41.92 41.11 42.37 38.23 42.38 42.21 40.23 39.70 36.50 40.72 35.98 41.28 42.08 43.34 45.23 46.61 47.76 48.04 48.61
55.75 55.70 55.78 55.36 52.03 49.87 52.10 56.42 56.69 50.47 26.36 40.79 42.57 48.51 47.12 43.89 44.61 44.96 49.16 46.56 42.16 42.18 42.33 39.29 39.19 39.72 40.00 41.32 42.97 40.25 43.29 42.33 41.90 40.68 38.92 38.37 36.57 40.50 41.11 40.94 43.05 45.71 46.58 47.72 48.63
55.31 55.44 55.41 55.08 54.82 53.75 56.47 56.24 52.84 36.83 26.26 37.76 42.15 40.79 41.25 42.83 43.27 44.75 45.56 47.27 46.36 42.22 42.83 40.96 42.39 43.00 42.25 41.69 42.73 42.79 41.63 41.17 41.60 40.04 33.00 38.73 37.24 38.93 38.67 41.92 43.57 45.12 46.44 46.89 47.59
50.87 54.84 54.84 55.72 50.63 56.35 56.63 51.93 37.49 31.41 40.25 36.46 37.08 40.29 40.43 38.91 40.64 42.34 40.93 40.30 38.71 35.47 36.09 38.99 39.48 41.79 42.80 39.19 41.77 42.31 39.16 32.80 31.64 31.48 31.04 34.63 34.39 39.25 40.72 44.55 45.42 44.49 45.61 46.88 48.30
49.22 53.63 53.63 53.75 56.43 55.89 53.59 43.23 30.21 36.19 36.84 41.22 39.90 39.62 36.81 39.36 39.69 40.23 39.72 37.95 41.82 40.88 37.76 34.65 31.72 39.14 42.57 41.79 38.82 39.59 39.77 34.35 27.14 28.43 32.25 31.71 31.62 38.20 42.70 45.73 47.02 46.78 46.70 47.26 47.32
48.26 49.28 51.36 49.15 52.62 55.50 46.81 34.09 34.68 37.83 40.42 39.14 39.21 35.53 36.33 38.33 38.60 38.76 39.22 39.12 41.31 41.99 37.04 35.53 34.85 40.64 41.34 41.88 42.87 39.27 35.97 40.41 32.30 27.55 32.00 34.64 37.72 39.92 40.82 43.05 44.53 44.74 45.50 46.28 46.98
44.41 46.97 45.18 47.70 50.31 52.60 42.92 35.64 38.78 42.19 43.09 41.32 34.91 37.64 34.56 36.00 36.47 37.23 37.67 41.88 41.03 42.53 42.19 39.78 32.85 37.82 38.72 41.74 41.05 40.17 41.79 33.59 36.13 28.16 28.38 33.42 35.07 37.07 36.60 39.89 42.52 42.92 44.98 45.99 46.65
42.88 41.47 43.41 46.88 50.05 46.09 36.70 37.48 40.45 43.16 44.64 40.62 38.36 36.49 37.86 36.10 37.38 36.53 37.82 41.15 43.72 41.12 41.95 41.03 39.17 33.80 37.95 37.06 37.56 36.84 36.31 37.21 38.11 36.45 32.32 30.04 33.92 41.10 40.74 42.44 42.78 44.06 46.03 45.73 45.88
39.66 33.74 43.29 45.22 40.67 41.37 37.56 40.52 42.52 41.84 44.39 43.31 43.31 40.31 38.28 38.11 35.52 36.59 37.70 40.42 44.28 42.55 37.68 41.34 38.23 32.03 34.63 38.27 39.23 40.46 38.93 38.41 34.10 30.45 33.24 32.09 35.79 41.68 44.07 44.41 45.75 45.12 45.99 46.39 46.37
35.19 33.64 42.99 43.93 34.26 35.97 40.49 40.73 42.26 41.43 41.50 41.51 41.01 42.18 41.25 38.17 34.52 37.45 38.47 40.79 40.78 40.64 39.82 40.41 37.12 30.31 30.91 35.73 37.13 36.20 38.23 39.56 39.63 37.30 32.43 31.86 35.17 40.59 42.74 44.25 45.66 45.06 45.36 45.44 45.32
36.93 32.15 35.20 34.92 34.18 37.77 37.20 38.00 38.51 44.15 42.68 43.18 41.94 42.21 39.96 37.64 39.94 36.84 37.76 40.34 41.71 40.79 41.52 42.43 37.68 35.40 31.52 34.75 38.52 34.46 36.80 37.61 38.04 32.93 33.86 34.28 37.07 37.56 41.65 42.92 44.33 44.18 45.10 45.01 44.61
36.67 31.92 33.76 32.17 32.79 33.56 36.48 38.24 37.60 37.69 43.09 43.95 40.38 40.91 40.01 35.86 37.02 36.23 39.08 38.83 40.48 41.48 41.12 40.62 34.42 36.75 38.16 37.14 38.39 37.66 36.60 36.42 34.89 36.95 33.97 37.05 36.50 40.63 41.44 43.35 44.32 45.42 44.99 43.98 43.34
33.84 31.73 33.76 32.01 34.25 33.95 33.51 33.07 37.30 39.53 40.53 39.56 39.54 41.71 42.02 38.60 39.25 36.97 38.47 38.82 37.91 39.78 39.16 39.59 34.85 37.01 33.38 35.84 35.83 34.03 37.00 36.19 36.03 37.21 37.62 38.38 38.41 43.87 44.58 45.46 44.64 44.25 43.98 43.05 42.59
38.69 38.83 35.64 31.35 33.00 32.18 33.55 33.99 33.87 37.96 42.29 42.63 42.30 41.57 39.97 41.23 44.29 45.48 44.64 44.13 42.76 39.17 38.06 37.51 34.52 33.56 31.60 33.97 34.70 31.17 34.20 36.24 36.78 38.84 39.22 35.47 40.12 42.96 42.87 43.13 43.62 43.38 43.44 42.85 42.42
MSLP
1009.17 1009.62 1009.91 1010.46 1010.77 1011.22 1011.40 1011.94 1012.25 1012.98 1013.36 1013.85 1014.07 1014.31 1014.86 1015.25 1015.64 1016.22 1015.14 1014.19 1013.80 1013.84 1014.26 1013.95 1013.23 1012.96 1012.99 1012.47 1012.49 1012.04 1010.59 1010.09 1009.88 1009.82 1010.63 1011.49 1011.59 1012.24 1012.59 1012.68 1013.10 1013.75 1013.93 1014.16 1015.72
1008.90 1009.26 1009.64 1010.16 1010.67 1010.93 1011.44 1011.79 1012.05 1012.65 1013.30 1013.89 1014.12 1014.68 1015.06 1015.32 1015.70 1015.42 1013.84 1013.92 1014.05 1014.23 1014.62 1013.79 1012.99 1012.82 1012.68 1012.41 1012.29 1011.80 1010.48 1009.93 1009.98 1010.17 1010.65 1011.38 1011.32 1012.08 1012.36 1012.70 1013.12 1013.98 1014.94 1015.12 1015.92
1008.51 1008.83 1009.55 1009.94 1010.60 1010.72 1011.22 1011.74 1012.10 1012.47 1013.00 1013.42 1013.88 1014.29 1015.04 1015.39 1015.48 1013.56 1013.16 1013.37 1013.74 1013.85 1014.28 1013.57 1013.09 1012.83 1012.20 1012.18 1011.89 1011.10 1010.44 1010.49 1011.11 1011.28 1010.76 1011.48 1011.63 1011.91 1011.85 1012.30 1012.49 1013.29 1014.58 1015.32 1015.88
1008.09 1008.57 1009.38 1009.76 1010.24 1010.56 1011.19 1011.72 1011.96 1012.37 1013.05 1013.50 1013.80 1014.48 1014.93 1015.71 1014.49 1012.21 1012.49 1012.91 1013.42 1013.67 1014.18 1013.34 1013.05 1012.95 1011.97 1011.81 1011.47 1011.07 1011.06 1011.11 1011.72 1012.06 1011.85 1011.92 1012.04 1012.06 1012.04 1012.62 1013.14 1013.48 1014.08 1015.03 1015.52
1007.67 1008.38 1008.93 1009.49 1010.17 1010.53 1011.13 1011.76 1011.98 1012.28 1013.14 1013.65 1014.17 1014.54 1015.41 1015.09 1012.85 1012.34 1012.77 1013.03 1013.19 1013.54 1013.67 1013.14 1012.45 1012.32 1011.92 1011.44 1011.57 1010.92 1011.32 1011.99 1012.27 1012.55 1012.45 1012.56 1012.39 1012.17 1012.44 1013.05 1013.77 1014.11 1014.35 1014.79 1015.37
1007.40 1007.86 1008.43 1009.35 1009.90 1010.44 1010.92 1011.63 1012.10 1012.59 1013.06 1013.44 1013.95 1014.56 1014.31 1013.08 1011.91 1011.72 1012.44 1012.29 1012.25 1013.08 1013.06 1012.85 1011.98 1011.76 1011.57 1011.43 1011.26 1011.31 1011.55 1012.30 1012.70 1012.90 1013.24 1012.93 1013.09 1013.03 1013.01 1013.47 1013.83 1014.03 1014.31 1014.63 1015.06
1007.07 1007.50 1008.26 1009.23 1009.97 1010.40 1011.14 1011.77 1012.02 1012.61 1012.94 1013.48 1013.91 1014.48 1013.36 1011.88 1011.70 1011.74 1012.50 1012.40 1012.52 1012.56 1012.39 1012.35 1011.96 1011.84 1011.75 1011.71 1012.00 1011.56 1012.17 1012.77 1012.93 1013.16 1013.66 1013.40 1013.16 1012.88 1013.45 1013.71 1013.69 1013.95 1013.87 1014.29 1014.67
1006.76 1007.52 1008.09 1009.16 1009.88 1010.41 1011.32 1011.79 1011.97 1012.42 1013.04 1013.71 1013.93 1014.18 1012.18 1011.58 1011.69 1012.21 1012.52 1012.59 1012.68 1012.66 1012.39 1012.43 1012.20 1012.04 1011.89 1011.89 1011.93 1011.71 1011.93 1012.43 1012.95 1013.34 1013.88 1013.75 1012.47 1012.64 1013.56 1013.62 1013.32 1013.39 1013.61 1014.31 1014.80
1006.64 1007.51 1008.11 1009.13 1009.52 1010.46 1011.03 1011.75 1012.04 1012.64 1013.27 1013.70 1014.12 1013.30 1012.11 1011.78 1011.86 1011.91 1012.21 1011.88 1012.22 1012.56 1012.45 1012.33 1012.08 1011.81 1012.05 1011.26 1011.40 1011.52 1011.08 1011.93 1013.08 1013.58 1013.41 1013.59 1012.63 1013.40 1013.63 1013.38 1013.33 1013.32 1013.48 1014.06 1014.57
1006.56 1007.42 1007.78 1008.90 1009.61 1010.33 1011.01 1011.87 1012.20 1012.64 1013.37 1013.55 1013.25 1013.56 1011.86 1011.10 1011.03 1011.44 1011.80 1012.01 1011.90 1012.24 1012.36 1012.18 1011.76 1011.43 1011.15 1010.50 1009.32 1010.22 1010.92 1011.85 1012.32 1013.52 1013.55 1013.42 1013.07 1013.43 1013.66 1013.71 1013.31 1013.43 1013.66 1014.08 1014.57
1006.19 1007.07 1007.54 1008.46 1009.58 1010.28 1011.14 1011.70 1011.96 1012.31 1012.21 1011.01 1011.17 1010.78 1010.28 1010.99 1011.26 1011.07 1011.60 1011.79 1011.53 1011.73 1011.25 1011.50 1010.97 1010.08 1010.23 1010.12 1009.60 1009.81 1010.89 1011.78 1012.28 1013.67 1013.62 1013.21 1012.98 1012.76 1013.39 1013.82 1013.75 1013.78 1014.01 1014.30 1014.78
1005.99 1006.60 1007.45 1008.60 1009.63 1010.36 1009.97 1009.01 1008.80 1008.80 1010.97 1010.74 1010.73 1011.11 1010.97 1010.72 1010.77 1010.92 1011.58 1011.06 1011.08 1010.72 1010.75 1011.57 1010.52 1010.19 1010.24 1010.67 1010.61 1010.47 1010.92 1011.92 1013.49 1014.16 1013.95 1013.45 1012.88 1012.85 1013.65 1013.88 1014.47 1014.67 1014.74 1015.10 1015.47
1005.59 1006.64 1007.51 1008.58 1009.78 1010.24 1009.43 1008.55 1008.74 1009.17 1009.48 1010.53 1010.92 1010.78 1010.82 1010.88 1010.45 1010.64 1011.35 1010.75 1010.51 1010.43 1010.77 1010.50 1010.50 1010.72 1010.82 1011.03 1010.87 1011.17 1011.21 1012.03 1012.75 1014.27 1014.27 1013.76 1012.65 1012.85 1014.10 1014.67 1015.08 1015.38 1015.78 1016.12 1016.10
1005.66 1006.69 1007.30 1008.60 1009.89 1009.43 1009.02 1008.55 1008.95 1009.36 1009.23 1010.32 1010.68 1010.70 1010.80 1010.70 1011.07 1011.26 1011.32 1010.80 1010.42 1010.11 1010.80 1010.78 1011.51 1011.36 1011.29 1011.11 1011.21 1011.60 1012.07 1012.41 1013.23 1013.69 1013.58 1013.94 1012.18 1012.29 1013.41 1014.51 1015.04 1015.51 1015.89 1016.45 1016.77
1005.43 1006.32 1007.05 1007.76 1007.56 1008.26 1008.17 1008.98 1009.05 1009.03 1008.89 1009.50 1010.34 1010.75 1010.74 1010.81 1010.87 1011.31 1011.38 1010.92 1010.47 1010.09 1010.52 1010.94 1011.67 1012.03 1011.94 1011.52 1011.76 1012.30 1012.79 1012.94 1013.50 1013.73 1013.81 1013.89 1013.57 1012.17 1013.27 1014.30 1015.12 1015.54 1016.37 1017.17 1017.42
1005.43 1006.18 1006.87 1007.94 1007.87 1008.23 1008.29 1008.85 1008.94 1008.82 1008.81 1009.27 1009.97 1010.40 1010.48 1010.85 1010.98 1011.25 1011.12 1010.95 1010.83 1010.83 1010.97 1011.88 1012.47 1012.40 1012.29 1012.74 1012.54 1013.24 1013.40 1013.91 1014.27 1014.45 1014.19 1013.45 1013.51 1011.73 1012.69 1013.24 1014.90 1015.82 1016.57 1017.53 1018.02
1006.10 1006.27 1006.97 1007.32 1007.71 1008.29 1008.43 1008.60 1008.64 1007.92 1007.97 1008.92 1009.11 1009.38 1009.53 1010.15 1010.58 1010.59 1010.63 1010.43 1010.07 1010.35 1010.92 1012.10 1012.66 1013.22 1013.05 1013.20 1013.71 1013.00 1012.80 1014.06 1014.56 1014.66 1014.06 1014.72 1014.31 1012.10 1012.91 1013.57 1014.68 1015.57 1016.72 1017.89 1018.20
1006.57 1006.65 1007.02 1007.94 1007.79 1008.13 1008.41 1008.27 1007.37 1006.11 1006.58 1007.46 1008.25 1008.91 1009.31 1009.85 1010.34 1010.22 1010.20 1009.76 1009.51 1009.07 1009.73 1010.97 1012.79 1012.80 1012.80 1012.33 1012.65 1012.78 1012.33 1012.83 1013.65 1014.54 1014.41 1015.28 1014.02 1012.70 1013.69 1014.12 1014.88 1016.04 1016.88 1018.00 1018.71
1006.94 1007.01 1007.52 1008.38 1008.07 1008.27 1008.09 1007.11 1005.10 1005.03 1005.95 1007.01 1008.16 1008.44 1008.94 1009.34 1009.38 1009.95 1009.39 1008.59 1008.68 1009.16 1008.73 1010.00 1011.91 1013.11 1013.29 1013.08 1012.70 1013.24 1012.88 1013.22 1013.98 1015.72 1014.80 1013.73 1013.34 1013.93 1014.53 1014.79 1015.36 1016.35 1017.32 1017.98 1018.86
1007.34 1007.29 1008.44 1008.65 1008.80 1008.58 1007.71 1005.88 1005.34 1005.04 1005.50 1006.25 1006.55 1007.38 1007.50 1008.26 1008.80 1008.88 1008.80 1008.14 1008.47 1008.94 1009.29 1009.59 1011.36 1013.50 1013.98 1013.57 1013.61 1012.99 1012.59 1013.32 1013.35 1014.13 1013.68 1012.58 1012.58 1012.15 1013.73 1014.23 1015.23 1016.11 1016.97 1018.03 1018.99
1007.92 1007.84 1009.15 1009.07 1008.91 1008.54 1006.23 1005.73 1005.53 1005.74 1005.58 1005.43 1005.64 1006.47 1006.63 1007.25 1007.85 1008.17 1007.89 1007.95 1008.03 1009.21 1009.80 1009.87 1010.74 1014.06 1014.40 1013.15 1012.68 1013.33 1012.55 1012.50 1012.43 1012.82 1012.48 1012.27 1011.44 1011.33 1011.77 1012.91 1014.00 1015.50 1016.56 1017.97 1018.96
1008.43 1009.21 1009.13 1008.83 1008.81 1007.95 1006.91 1005.35 1005.58 1005.98 1006.23 1005.59 1005.88 1006.21 1006.03 1006.86 1007.69 1008.04 1007.60 1007.79 1008.04 1008.90 1009.67 1010.36 1011.45 1013.15 1013.46 1013.68 1013.50 1012.71 1012.14 1012.15 1012.04 1012.74 1012.82 1012.75 1011.83 1011.90 1011.33 1012.36 1013.84 1015.14 1016.51 1018.00 1019.04
1008.85 1009.38 1009.22 1008.61 1008.13 1007.53 1007.14 1006.29 1005.91 1006.18 1006.09 1006.21 1006.04 1006.04 1006.30 1006.64 1007.61 1007.94 1008.50 1009.48 1009.47 1009.63 1009.46 1010.13 1011.14 1012.91 1013.93 1014.20 1013.83 1013.02 1012.41 1011.88 1011.91 1012.38 1012.79 1012.84 1011.80 1012.16 1011.73 1012.39 1013.69 1014.92 1016.56 1017.99 1019.25
1009.16 1009.70 1009.92 1009.37 1009.52 1008.23 1007.55 1006.66 1006.29 1006.53 1006.21 1006.40 1006.38 1006.45 1006.48 1006.85 1007.22 1007.88 1009.13 1010.04 1010.25 1010.37 1010.29 1010.07 1010.61 1010.82 1010.99 1010.64 1011.03 1012.09 1011.58 1011.66 1011.63 1012.11 1011.38 1011.21 1011.00 1011.73 1011.90 1012.53 1013.88 1015.12 1016.57 1017.82 1019.00
1008.98 1009.39 1009.89 1009.75 1009.61 1008.87 1008.20 1007.19 1006.89 1006.65 1006.69 1006.62 1006.67 1006.25 1006.02 1007.06 1007.85 1008.24 1009.32 1010.61 1011.13 1011.18 1011.04 1010.94 1011.28 1011.44 1011.21 1011.67 1011.40 1011.22 1011.31 1011.57 1011.63 1010.52 1010.86 1009.63 1009.94 1010.04 1011.34 1012.14 1013.11 1014.70 1016.52 1017.64 1018.86
1009.17 1009.59 1010.01 1010.16 1009.84 1009.41 1008.75 1008.20 1007.13 1006.59 1006.51 1006.73 1006.67 1006.64 1006.48 1006.61 1006.83 1007.51 1008.74 1009.72 1010.31 1011.77 1011.65 1011.83 1012.02 1012.06 1012.63 1012.72 1012.53 1012.07 1011.54 1011.24 1011.03 1010.43 1010.19 1009.34 1009.07 1009.41 1010.63 1012.36 1013.57 1014.71 1015.95 1017.15 1018.56
1009.62 1009.64 1009.51 1009.93 1009.87 1009.63 1008.95 1008.91 1008.44 1007.65 1006.81 1006.97 1007.31 1007.46 1007.65 1007.76 1007.64 1007.49 1008.29 1009.03 1009.60 1010.35 1011.45 1012.00 1012.52 1013.17 1013.42 1013.46 1013.06 1012.43 1010.57 1010.56 1010.38 1009.83 1009.21 1009.06 1008.09 1009.78 1010.71 1011.78 1012.89 1014.21 1015.34 1016.63 1018.14
Wind_Speed
17 16 13 14 12 13 12 16 16 14 14 14 12 10 3 4 3 2 9 8 1 8 3 8 5 3 4 4 2 4 6 7 8 7 9 12 9 3 3 6 3 3 6 6 16
18 16 14 13 13 13 12 13 15 14 15 16 14 11 5 4 2 14 8 18 10 4 8 8 9 9 6 2 4 5 6 9 4 3 11 14 9 10 7 8 6 7 7 12 15
16 16 17 13 13 12 12 12 13 13 10 10 14 13 9 5 1 8 14 20 11 8 12 11 6 11 12 6 6 6 10 6 4 4 8 12 7 7 6 7 7 10 12 13 14
17 16 15 14 12 12 12 12 12 13 12 11 12 10 12 5 7 4 11 14 14 10 12 9 10 9 10 11 8 9 2 2 4 4 5 11 10 7 6 8 7 5 14 14 15
17 17 15 14 13 14 13 13 13 12 11 11 12 14 8 9 9 8 4 12 15 10 15 15 14 13 9 8 8 7 8 5 7 5 5 5 5 3 6 9 7 7 6 12 13
18 17 15 12 13 14 14 13 14 13 12 11 11 14 8 15 0 6 8 9 12 15 16 17 11 15 8 6 12 5 8 9 6 7 4 5 3 1 4 3 5 6 8 11 12
19 17 17 15 13 15 14 14 14 13 13 13 13 13 10 11 3 6 7 7 10 15 15 16 2 11 7 8 2 12 8 6 6 5 3 2 4 7 7 3 5 8 8 8 11
20 18 17 16 14 15 14 13 13 11 11 12 13 11 9 1 6 6 8 8 8 11 12 7 6 5 5 9 7 7 8 8 7 6 4 4 5 8 2 8 8 7 8 7 8
20 18 19 16 15 14 14 12 11 11 10 12 8 7 7 6 5 10 11 8 10 6 4 6 4 5 6 13 8 9 10 14 6 5 4 7 5 6 2 4 7 7 6 6 8
21 19 21 18 15 15 14 12 11 13 9 7 3 5 7 6 7 9 8 10 6 10 9 8 7 9 12 15 18 13 15 8 11 8 6 8 10 5 6 3 6 5 5 6 6
20 21 22 19 17 17 17 12 11 7 11 6 8 5 6 5 6 9 7 10 9 14 12 14 12 18 18 16 11 16 14 10 7 3 6 12 10 9 6 5 7 6 3 3 2
24 22 22 21 18 18 16 10 17 7 9 5 6 4 1 2 6 10 8 12 13 17 15 8 17 17 16 8 6 10 14 9 5 3 4 5 11 10 3 4 1 4 5 2 2
23 23 22 21 17 11 15 16 5 9 7 5 3 5 3 3 4 15 12 5 16 19 15 15 12 10 8 10 12 9 14 12 4 6 1 2 8 12 4 4 3 2 1 2 2
24 24 24 21 11 14 15 10 5 4 6 9 6 5 4 2 4 2 5 5 9 19 17 10 5 11 13 16 14 9 2 11 11 11 5 3 4 8 8 6 5 5 4 5 7
24 25 26 21 9 17 9 9 6 3 8 13 7 1 2 5 9 6 1 3 12 12 9 6 9 13 14 15 10 5 8 9 9 5 1 6 6 6 8 8 6 6 7 6 7
18 24 26 8 5 9 8 8 5 6 8 8 8 10 9 5 4 7 5 2 3 7 3 5 2 7 3 7 1 16 13 11 6 3 6 10 8 9 9 11 11 9 10 9 8
13 15 19 7 7 7 9 6 6 7 11 11 9 11 18 8 7 12 17 12 10 10 12 5 7 3 6 10 8 10 15 5 7 5 6 3 4 4 7 6 12 15 13 10 10
11 6 6 3 3 9 6 9 9 14 15 5 8 15 16 13 5 10 17 17 11 10 14 13 8 12 10 9 10 14 16 6 7 7 6 3 9 2 8 6 13 13 14 11 9
6 2 5 3 5 5 10 15 12 16 11 13 15 16 13 7 7 11 19 21 18 14 10 14 7 3 3 1 11 12 9 4 7 2 2 7 5 4 8 11 13 14 13 12 11
2 4 3 7 3 6 12 13 15 3 15 16 13 16 23 19 12 16 19 17 14 12 3 7 6 1 2 3 1 8 12 5 3 6 5 7 8 7 15 19 17 17 16 14 11
2 5 1 6 2 6 17 16 12 4 11 15 11 15 19 19 17 16 16 6 21 13 4 8 4 4 4 10 14 5 6 5 4 3 5 4 6 3 20 22 22 19 17 15 13
2 4 3 5 7 9 14 20 6 9 5 5 7 4 16 17 13 12 14 11 16 15 13 2 6 5 7 4 2 6 10 13 6 5 2 3 3 4 8 20 19 18 15 15 13
3 2 4 3 11 9 11 21 10 8 9 6 8 3 1 13 10 11 7 3 2 10 16 10 5 6 1 2 2 8 10 12 8 3 6 6 5 4 5 15 17 18 16 15 14
2 2 2 3 1 9 10 19 15 5 7 4 4 3 8 7 2 13 9 2 2 1 4 4 3 10 12 10 9 11 18 16 15 6 10 10 9 6 11 16 17 17 18 17 16
2 3 3 3 1 2 3 6 18 12 6 8 2 8 9 6 8 7 7 5 2 2 3 3 6 8 14 3 3 8 14 15 16 24 13 21 16 11 18 21 23 18 17 16 15
3 3 0 2 2 4 4 4 25 21 15 9 8 14 11 7 12 12 11 7 6 4 8 3 4 6 2 3 0 2 8 17 20 24 20 19 15 8 18 15 18 18 19 19 18
1 1 1 4 3 2 1 2 2 8 12 6 8 6 10 2 2 5 7 8 9 12 12 9 7 4 5 5 3 4 17 16 15 20 19 22 24 9 15 19 20 20 20 19 18
Wind_Direction
191 192 187 199 202 194 180 184 167 168 167 167 153 150 188 205 160 208 217 225 209 345 291 277 214 191 215 193 223 285 213 213 182 198 141 156 163 171 84 135 121 99 39 86 136
192 186 191 196 202 181 179 181 179 179 185 179 165 169 197 185 184 238 238 244 250 216 232 211 207 189 195 217 206 237 225 204 155 102 156 168 187 153 170 147 155 145 112 124 149
194 178 188 183 193 177 176 174 167 172 179 182 176 166 168 115 27 241 212 224 214 188 249 243 223 214 208 194 210 203 212 112 133 78 141 160 165 156 170 177 157 177 155 158 167
189 177 182 175 184 185 175 176 167 163 174 178 165 154 139 154 169 177 168 215 197 177 236 216 190 195 215 202 194 183 92 108 123 103 162 167 140 170 201 82 73 106 154 168 181
182 170 173 173 189 182 179 167 157 155 171 173 160 140 148 205 243 125 198 183 174 167 216 207 189 201 222 198 191 214 136 105 111 131 160 116 175 91 188 125 118 106 166 176 191
178 166 164 174 184 175 167 165 157 163 166 168 167 165 237 218 91 129 167 148 167 187 210 223 197 197 244 201 201 137 137 121 135 130 112 184 145 267 95 135 196 165 170 187 200
174 168 163 176 182 165 160 169 164 161 162 170 170 186 234 222 105 132 178 181 199 196 211 211 274 187 189 156 133 146 115 142 156 133 113 285 208 216 125 151 156 201 181 188 194
171 171 158 173 171 157 155 166 150 153 159 164 164 216 241 50 118 157 199 180 196 214 248 204 190 173 267 121 131 161 175 180 148 176 126 231 239 130 162 203 204 178 191 185 198
168 169 157 169 152 150 142 145 135 141 154 146 158 235 230 121 161 181 196 186 163 186 178 142 166 179 157 180 166 196 196 212 146 206 139 216 246 119 144 190 184 182 172 189 200
169 167 153 159 149 142 135 147 123 130 158 171 280 212 189 207 153 164 179 184 160 161 150 177 188 185 207 200 201 181 216 201 202 175 203 195 237 143 160 193 185 173 175 183 190
169 162 150 150 150 150 145 139 146 158 194 173 184 236 160 99 146 166 164 172 160 186 182 194 198 202 196 213 235 195 206 196 186 116 213 220 241 211 172 225 217 229 219 227 202
168 157 150 149 156 168 179 188 173 138 174 231 286 181 88 227 143 151 184 178 184 187 189 174 215 202 203 163 172 175 193 186 94 136 212 204 241 233 163 230 262 281 255 245 181
158 155 147 144 154 169 202 209 110 185 157 169 182 191 163 209 167 165 189 202 188 190 194 199 197 127 142 170 172 189 194 177 172 147 169 243 241 184 166 153 158 136 221 194 136
157 152 140 141 149 179 205 197 212 244 154 163 194 190 135 196 158 90 202 192 198 193 196 231 133 176 189 193 196 184 163 145 141 174 203 213 243 178 165 186 169 140 152 135 130
155 149 147 164 155 181 181 178 181 252 196 153 147 42 127 187 123 176 138 167 174 167 193 152 157 177 191 192 203 134 151 137 153 185 225 190 251 132 166 196 178 145 121 125 105
158 155 154 182 151 175 153 157 191 200 220 165 141 166 153 164 141 124 162 84 54 151 139 97 353 197 137 80 196 138 118 98 113 175 238 213 232 203 174 202 162 144 134 131 118
30 170 160 160 160 150 161 178 165 209 138 166 180 174 177 163 152 187 185 172 168 160 184 125 154 122 160 100 138 171 157 148 195 195 233 52 218 250 124 165 174 155 144 142 133
7 151 140 70 127 150 185 185 207 186 186 136 163 160 181 154 177 182 186 194 217 231 172 180 198 180 174 205 174 193 187 170 189 195 183 87 230 210 121 157 143 142 141 136 128
347 98 108 21 19 191 181 197 198 184 153 149 145 170 182 186 140 169 200 200 195 205 176 190 154 111 180 110 171 176 202 69 105 21 162 183 223 179 164 160 153 152 155 149 140
1 135 63 346 329 189 200 206 199 184 140 159 171 187 191 182 164 189 186 208 198 197 327 205 129 207 106 146 116 220 144 152 216 162 215 185 240 240 185 178 172 169 169 157 146
337 120 62 325 227 184 206 193 195 160 171 175 174 184 195 183 199 192 186 198 193 179 203 168 106 132 178 206 180 163 186 213 230 238 213 184 235 343 189 184 178 175 170 162 161
65 141 337 314 176 200 207 193 163 162 204 205 174 140 187 179 192 198 207 209 195 167 176 151 105 149 188 73 11 268 217 196 201 191 299 41 257 333 209 184 178 172 163 166 163
58 31 316 306 193 193 197 212 203 169 188 183 193 148 142 170 181 200 186 62 93 186 182 177 152 106 76 245 176 218 199 221 220 61 193 183 229 328 217 170 172 166 167 164 159
150 176 41 25 31 218 184 204 195 217 199 180 142 124 133 171 182 189 161 141 159 203 359 120 123 196 205 210 152 200 202 199 205 200 209 227 214 163 175 171 173 171 174 169 168
15 79 9 135 224 109 158 215 197 184 209 185 185 214 168 145 169 181 153 137 130 177 150 147 205 211 232 33 248 202 197 191 204 222 209 235 231 202 187 184 190 178 171 169 170
133 151 151 64 113 168 147 202 214 198 165 201 231 196 211 176 191 175 158 169 169 162 177 169 203 213 44 105 169 238 223 192 209 227 234 248 252 282 178 190 180 180 177 178 175
122 57 281 134 169 148 133 114 187 276 207 240 210 191 210 226 56 160 151 152 159 158 180 165 142 138 208 120 85 281 224 200 214 222 219 231 237 152 179 187 186 185 186 179 174